Regional Weather Roundup
Issued by NWS Upton, NY

Home | Current Version | Previous Version | Text Only | Print | Product List | Glossary On
Versions: 1 2 3 4 5 6 7 8 9 10 11 12 13 14 15 16 17 18 19 20 21 22 23 24 25 26 27 28 29 30 31 32 33 34 35 36 37 38 39 40 41 42 43 44 45 46 47 48 49 50
000
ASUS41 KOKX 250105
RWROKX

REGIONAL WEATHER ROUNDUP
NATIONAL WEATHER SERVICE NEW YORK NY
900 PM EDT THU JUL 24 2014

NOTE: "FAIR" INDICATES FEW OR NO CLOUDS BELOW 12,000 FEET WITH NO
SIGNIFICANT WEATHER AND/OR OBSTRUCTIONS TO VISIBILITY.

NYZ071-072-176-178-NJZ106-104-250200-
NEW YORK CITY METRO AREA


CITY           SKY/WX    TMP DP  RH WIND       PRES   REMARKS
CENTRAL PARK   MOCLDY    77  55  46 N5        29.91R
LAGUARDIA APRT MOCLDY    76  55  48 N10       29.87R
KENNEDY INTL   MOCLDY    77  55  46 N9        29.88R
NEWARK/LIBERTY CLOUDY    77  55  46 NW13      29.88R
BRNX BOT. GARD   N/A     73  54  49 NW3       29.89S
TETERBORO      CLOUDY    78  56  46 NE5       29.87R
$$

NYZ177-179-078>081-250200-
LONG ISLAND NEW YORK

CITY           SKY/WX    TMP DP  RH WIND       PRES   REMARKS
FARMINGDALE    CLEAR     74  56  53 N6        29.88R
ISLIP          PTCLDY    76  56  49 N6        29.85R
SHIRLEY        CLEAR     73  57  57 NW7       29.87R
WESTHAMPTON    MOCLDY    71  66  84 CALM      29.88R
MONTAUK POINT    N/A     68  65  90 CALM      29.88R
$$

NYZ052-065-067-250200-
HUDSON VALLEY

CITY           SKY/WX    TMP DP  RH WIND       PRES   REMARKS
WHITE PLAINS   MOCLDY    69  57  65 NW5       29.89R
NEWBURGH       PTCLDY    72  57  60 N9        29.92R
MONTGOMERY     MOCLDY    69  54  58 NW6       29.91R
POUGHKEEPSIE   MOCLDY    70  60  70 CALM      29.89R
ALBANY         MOCLDY    69  53  56 NW5       29.90R
$$

NJZ001-105-106-008-010-013-015-019>022-104-250200-
NEW JERSEY

CITY           SKY/WX    TMP DP  RH WIND       PRES   REMARKS
NEWARK/LIBERTY CLOUDY    77  55  46 NW13      29.88R
TETERBORO      CLOUDY    78  56  46 NE5       29.87R
CALDWELL       CLOUDY    73  54  51 NW3       29.90R
MORRISTOWN     PTCLDY    72  54  53 N6        29.90R
SOMERVILLE     CLOUDY    72  55  55 N3        29.88R
LINDEN         FAIR      77  54  44 N10       29.90R
SUSSEX         MOCLDY    72  53  51 NW5       29.92R
ANDOVER          N/A     68  54  60 VRB5      29.93R
TRENTON        CLOUDY    72  55  55 N6        29.89R
MILLVILLE      CLOUDY    73  61  65 NW3       29.88S
ATLANTIC CITY  CLOUDY    71  67  87 E6        29.88R
WRIGHTSTOWN    CLOUDY    73  57  58 NW7       29.87R
TOMS RIVER     MOCLDY    72  64  78 CALM      29.89R
BELMAR         MOCLDY    73  61  64 S5        29.88R
$$

PAZ047>061-062-071-250200-
EASTERN PENNSYLVANIA

CITY           SKY/WX    TMP DP  RH WIND       PRES   REMARKS
PHILADELPHIA   CLOUDY    77  53  43 N10       29.89S
ALLENTOWN      MOCLDY    70  53  54 N6        29.92R
SCRANTON       PTCLDY    67  49  52 N7        29.96R
$$

CTZ002-004>006-009-010-012-RIZ004-006-007-MAZ004-011-015-250200-
SOUTHERN NEW ENGLAND
 IN CT

CITY           SKY/WX    TMP DP  RH WIND       PRES   REMARKS
BRADLEY INTL   MOCLDY    70  56  61 NW6       29.86R
HARTFORD       CLEAR     74  54  49 N10       29.86R
DANBURY        MOCLDY    70  56  61 CALM      29.91R
WTRBRY/OXFORD  NOT AVBL
BRIDGEPORT     MOCLDY    75  56  51 N8        29.86R
MERIDEN        CLEAR     69  58  67 CALM      29.87R
NEW HAVEN      PTCLDY    76  55  48 NW5       29.86R
CHESTER        FAIR      68  64  88 CALM      29.89R
GROTON         PTCLDY    67  65  93 SE3       29.86R
WILLIMANTIC    PTCLDY    70  60  70 N6        29.87R

 IN RI

CITY           SKY/WX    TMP DP  RH WIND       PRES   REMARKS
PROVIDENCE     MOCLDY    71  59  65 E3        29.87R
BLOCK ISLAND   PTCLDY    66  63  88 E5        29.87R
WESTERLY       MOCLDY    70  64  81 CALM      29.87R

 IN MA

CITY           SKY/WX    TMP DP  RH WIND       PRES   REMARKS
BOSTON         PTCLDY    65  62  90 NE5       29.87R
WORCESTER      CLOUDY    70  54  56 N8        29.90R
WESTFIELD      CLEAR     67  58  72 CALM      29.88R
PROVINCETOWN   PTCLDY    61  61 100 CALM      29.86R
NANTUCKET      CLOUDY    64  62  93 NE8       29.85R
$$

ANZ330-335-338-340-345-350-353-355-250200-
COASTAL MARINE OBSERVATIONS


STATION/POSITION TIME  SKY/WX   TEMP    WIND        PRES    VSBY  WAVE
                                AIR SEA DIR/SP/G                  HT/PER
                 (UTC)          (F)     (DEG/KT/KT) (MB)    (MI)  (FT/S)
NY HARB ENTRANCE NOT AVBL
4S FIRE IS       NOT AVBL
23SW MTP         0100            70 71              1010.6          2/ 8
HUDSON CANYON    0100            73 74  310/  6/  6 1011.2          3/ 9
EXECUTION ROCKS  0100            74 72  340/  6/  6   N/A
WESTERN LI SOUND 0100            74     330/  6/  8   N/A           0
CENTRAL LI SOUND 0000            75 73  350/ 10/ 12   N/A           0
EASTERN LI SOUND 0000            68 67  100/  4/  4   N/A
ROBBINS REEF     0100            77      30/  9/ 11   N/A
$$


>>>>>>>>>>>>>>>>>>>>>>>>>>>> KEY <<<<<<<<<<<<<<<<<<<<<<<<<<<
>                                                          <
>     SKY/WX - SKY CONDITION/PRESENT WEATHER               <
>     TMP    - TEMPERATURE IN FAHRENHEIT                   <
>     DP     - DEWPOINT IN FAHRENHEIT                      <
>     RH     - RELATIVE HUMIDITY IN PERCENT                <
>     WIND   - DIRECTION AND SPEED IN MPH                  <
>     PRES   - MEAN SEA LEVEL PRESSURE IN INCHES OF HG     <
>     WCI    - WIND CHILL INDEX                            <
>     VSB    - VISIBILITY IN MILES                         <
>     HX     - HEAT INDEX                                  <
>     TC     - TEMPERATURE IN CELSIUS                      <
>     VRB    - VARIABLE WIND DIRECTION                     <
>                                                          <
>>>>>>>>>>>>>>>>>>>>>>>>>>>> KEY <<<<<<<<<<<<<<<<<<<<<<<<<<<




USA.gov is the U.S. government's official web portal to all federal, state and local government web resources and services.